AirNav   Pilot Hours Calculator
 
 411 users online  

PA78 Sports Complex N Lot Heliport
Philadelphia, Pennsylvania, USA

GOING TO PHILADELPHIA?


FAA INFORMATION EFFECTIVE 31 DECEMBER 2020

Location

FAA Identifier: PA78
Lat/Long: 39-54-05.5600N 075-09-40.8400W
39-54.092667N 075-09.680667W
39.9015444,-75.1613444
(estimated)
Elevation: 26 ft. / 8 m (estimated)
From city: 3 miles S of PHILADELPHIA, PA
Time zone: UTC -5 (UTC -4 during Daylight Saving Time)
Zip code: 19112

Heliport Operations

Heliport use: Private use. Permission required prior to landing
Activation date: 11/2018
Control tower: no
ARTCC: NEW YORK CENTER
FSS: WILLIAMSPORT FLIGHT SERVICE STATION
Attendance: 
Wind indicator: no
Segmented circle: no

Heliport Communications

WX ASOS at PHL (4 nm SW): PHONE 215-492-9617
WX ASOS at PNE (13 nm NE): 121.15 (215-677-0146)
WX ASOS at VAY (15 nm E): 119.325 (609-267-1176)
WX AWOS-3 at LOM (15 nm N): 118.925 (215-646-1068)

Nearby radio navigation aids

VOR radial/distance  VOR name  Freq  Var
OODr032/17.2WOODSTOWN VORTAC112.8010W
MXEr101/23.5MODENA VORTAC113.2009W
VCNr348/23.6CEDAR LAKE VOR/DME115.2010W
ARDr219/24.1YARDLEY VOR/DME108.2010W
DQOr067/24.5DUPONT VORTAC114.0010W
PTWr145/26.6POTTSTOWN VORTAC116.5009W
GXUr268/26.8MC GUIRE VORTAC110.6012W
CYNr289/34.0COYLE VORTAC113.4010W
RBVr249/35.5ROBBINSVILLE VORTAC113.8010W
ACYr325/38.0ATLANTIC CITY VORTAC108.6010W

 
NDB name  Hdg/Dist  Freq  Var  ID
AMBLER169/14.627512WING .. -. --.
RAINBOW009/29.036311WRNB .-. -. -...
LAKEHURST268/38.939611WNEL -. . .-..

Heliport Services

Runway Information

Helipad H1

Dimensions: 46 x 46 ft. / 14 x 14 m
Surface: asphalt, in excellent condition
Latitude: 39-54.092667N
Longitude: 075-09.680667W
Elevation: 26.0 ft.
Traffic pattern: leftleft

Heliport Ownership and Management from official FAA records

Ownership: Privately-owned
Owner: PHILADELPHIA 76ERS LP
3 BANNER WAY
CAMDEN, NJ 08103
Phone 215-339-7625
Manager: LARA PRICE, PHILADELPHIA 76ERS LP
3 BANNER WAY
CAMDEN, NJ 08103
Phone 215-339-7625
LARAPRICE@76ERS.COM

Additional Remarks

FOR CD CTC PHILADELPHIA APCH AT 800-354-9884.

Instrument Procedures

There are no published instrument procedures at PA78.

Some nearby airports with instrument procedures:

KPHL - Philadelphia International Airport (4 nm SW)
19N - Camden County Airport (12 nm SE)
KPNE - Northeast Philadelphia Airport (13 nm NE)
17N - Cross Keys Airport (13 nm SE)
KVAY - South Jersey Regional Airport (15 nm E)
7N7 - Spitfire Aerodrome (15 nm SW)
KLOM - Wings Field Airport (15 nm N)
N14 - Flying W Airport (16 nm E)
 
Loc | Ops | Rwys | IFR | FBO | Links
Com | Nav | Svcs | Stats | Notes
Aerial photo
No photo
 
Airport distance calculator
Flying to Sports Complex N Lot Heliport? Find the distance to fly.

From to PA78

Sunrise and sunset
Times for 23-Jan-2021
 Local
(UTC-5)
 Zulu
(UTC)
Morning civil twilight06:4811:48
Sunrise07:1712:17
Sunset17:0822:08
Evening civil twilight17:3722:37

Current date and time
Zulu (UTC)  23-Jan-2021 07:32:50
Local (UTC-5)  23-Jan-2021 02:32:50
 
METAR
KPHL 
4nm SW 
230654Z 32012KT 10SM BKN065 02/M09 A2998 RMK AO2 SLP153 T00171089
KPNE 
13nm NE 
230654Z AUTO 32011KT 10SM OVC060 02/M09 A2998 RMK AO2 SLP153 T00171094
KLOM 
15nm N 
230715Z AUTO 32006KT 10SM OVC060 00/M10 A2998 RMK AO2 T10001101
KVAY 
15nm E 
ASOS 119.325 609-267-1176
230654Z AUTO 32007KT 10SM OVC065 02/M07 A2997 RMK AO2 SLP148 T00171072
TAF
KPHL 
4nm SW 
230528Z 2306/2412 30012G20KT P6SM BKN060 FM230900 30014G24KT P6SM SCT050 FM231400 31018G28KT P6SM BKN050 FM231900 31020G30KT P6SM SCT060 FM232200 31014G24KT P6SM FEW100 FM240100 31012KT P6SM SKC
KPNE 
13nm NE 
230528Z 2306/2406 30012KT P6SM BKN060 FM230900 30010G18KT P6SM SCT050 FM231400 31018G28KT P6SM BKN050 FM231900 31020G30KT P6SM SCT060 FM232200 31014G24KT P6SM FEW100
NOTAMs
Click for the latest NOTAMs
NOTAMs are issued by the DoD/FAA and will open in a separate window not controlled by AirNav.

 

 
 

Would you like to see your business listed on this page?

 If your business provides an interesting product or service to pilots, flight crews, aircraft, or users of the Sports Complex N Lot Heliport, you should consider listing it here.  To start the listing process, click on the button below
 
Add a business
 

Other Pages about Sports Complex N Lot Heliport

Update a link
 
Copyright © AirNav, LLC. All rights reserved. Privacy Policy  Contact